Location: Grand Lay
(47.3253°N, 0.9468°E)
Time: 15:06:48
(UTC+00:00)

IGS 5A - Pass Details

Date: 18 January 2026
Orbit: 551 x 554 km, 97.4° (Epoch: 8 January)

Event Time Altitude Azimuth Distance (km) Brightness Sun altitude
Rises 05:47:21 0° 13° (NNE) 2,740 6.9 -18.1°
Reaches altitude 10° 05:49:30 10° 15° (NNE) 1,841 6.0 -17.8°
Maximum altitude 05:53:29 80° 101° (E) 567 3.4 -17.1°
Drops below altitude 10° 05:57:26 10° 190° (S) 1,825 6.0 -16.4°
Sets 05:59:33 0° 192° (SSW) 2,715 6.9 -16.1°
